Terminal Aerodrome Forecast
Issued by NWS Blacksburg, VA

Home | Current Version | Previous Version | Text Only | Print | Product List | Glossary On
Versions: 1 2 3 4 5 6 7 8 9 10 11 12 13 14 15 16 17 18 19 20 21 22 23 24 25 26 27 28 29 30 31 32 33 34 35 36 37 38 39 40 41 42 43 44 45 46 47 48 49 50
000
FTUS41 KRNK 211126
TAFBLF
TAF
KBLF 211126Z 2112/2212 26008KT P6SM VCSH BKN015 OVC045
     FM211500 29014G24KT P6SM -SHRA BKN015 OVC025
     FM220000 30011G21KT P6SM -SHRA BKN007 OVC015=

USA.gov is the U.S. government's official web portal to all federal, state and local government web resources and services.